Location: Lac Lasalle
(46.0398°N, 74.1576°W)
Time: 00:01:09
(UTC-05:00)

AO-73 - Pass Details

Date: 15 December 2019
Orbit: 581 x 664 km, 97.6° (Epoch: 20 January)

Event Time Altitude Azimuth Distance (km) Brightness Sun altitude
Rises 17:02:15 0° 154° (SSE) 2,959 ? -8.5°
Reaches altitude 10° 17:04:30 10° 150° (SSE) 2,042 ? -8.8°
Maximum altitude 17:08:52 56° 73° (ENE) 764 ? -9.5°
Drops below altitude 10° 17:13:09 10° 356° (N) 2,010 ? -10.2°
Sets 17:15:21 0° 352° (N) 2,907 ? -10.6°
